Wind_Speed
11 12 14 16 19 21 22 23 22 23 24 25 25 26 26 27 27 28 28 29 30 30 30 31 31 32 33 34 35 36 36 36 37 39 40 41 42 44 45 45 46 47 48 49
9 10 11 13 16 17 19 20 21 22 23 23 23 23 24 25 25 26 26 27 28 29 29 30 30 32 33 33 34 35 36 36 36 38 40 41 42 43 44 44 45 46 47 49
8 8 9 10 12 14 15 17 18 19 20 20 21 21 22 23 24 25 25 26 27 28 28 28 29 30 31 32 33 33 34 35 36 37 38 40 41 41 42 44 44 44 45 47
7 8 8 9 10 11 12 14 15 17 18 18 19 20 20 22 23 23 24 25 26 27 27 27 28 29 30 30 31 32 33 34 34 34 35 37 39 41 42 42 43 44 45 46
5 7 9 9 9 10 12 13 14 15 16 18 19 21 20 21 22 23 24 25 26 26 27 27 27 28 29 28 29 30 31 31 31 33 33 34 36 38 40 41 43 44 45 46
5 6 8 9 9 10 11 13 14 15 16 17 18 20 20 21 21 22 22 23 25 26 26 26 26 27 27 27 28 28 29 29 30 31 32 32 33 35 37 39 40 41 41 42
4 6 7 8 9 10 11 12 13 14 15 16 16 18 18 19 20 21 21 22 24 24 25 25 25 25 26 26 26 26 27 27 28 28 29 30 31 32 34 36 38 39 39 39
5 5 7 8 8 9 10 12 13 15 15 14 15 16 17 18 18 19 20 22 22 23 24 26 26 25 25 25 25 26 26 26 26 27 28 28 29 30 32 33 35 36 36 37
6 6 7 8 9 10 11 12 13 14 14 14 14 15 16 17 17 18 19 20 21 22 23 25 25 25 25 25 25 26 26 26 25 26 27 27 28 27 28 30 31 33 36 37
7 7 8 9 9 10 11 12 12 13 14 15 14 14 15 16 16 17 18 20 20 21 22 23 24 25 25 25 25 25 25 25 25 26 27 26 25 25 26 28 30 31 33 35
8 8 9 9 10 11 12 13 14 15 16 16 16 14 16 16 16 17 18 19 20 21 21 22 23 24 25 25 25 24 24 25 24 24 24 24 24 25 25 25 27 27 29 31
9 9 9 10 11 12 13 13 15 16 17 17 17 16 17 17 17 18 19 19 20 20 20 21 23 23 23 23 24 25 25 25 25 24 24 23 24 25 24 25 26 27 28 28
10 11 11 12 13 13 14 14 15 16 17 17 18 16 18 19 19 19 20 20 21 21 22 23 23 23 24 24 24 25 25 25 24 23 23 23 23 24 24 25 25 26 26 27
12 12 13 13 14 14 15 15 16 17 17 18 17 17 18 20 20 21 21 21 21 22 22 23 23 23 24 24 24 24 23 23 24 24 24 23 23 24 24 24 24 24 24 24
14 14 14 14 15 15 15 16 17 18 18 19 18 19 19 21 22 22 23 22 22 22 22 22 23 24 24 24 23 23 23 23 23 23 22 22 22 23 23 23 24 23 23 24
15 15 15 15 16 17 17 17 18 19 19 20 20 20 21 23 23 24 24 23 23 23 23 23 23 23 23 22 22 21 22 22 22 22 22 22 23 23 23 23 23 24 24 24
17 18 18 18 18 19 19 19 20 20 21 22 22 21 23 23 23 24 25 24 24 23 23 22 21 21 21 21 20 20 20 21 22 23 23 23 23 23 23 22 23 23 24 25
20 20 21 21 21 21 21 21 22 22 23 24 23 23 23 23 23 23 24 24 24 23 22 21 21 22 21 21 21 21 21 21 22 22 22 22 22 22 22 23 24 24 24 25
22 23 23 23 24 23 23 23 24 24 24 24 24 24 24 24 23 24 25 24 24 24 23 23 22 22 22 22 22 22 22 22 22 22 23 23 22 22 23 23 23 24 25 26
25 25 26 25 26 26 25 26 26 26 25 25 25 25 25 25 25 25 25 25 24 24 24 24 24 24 24 24 24 24 24 23 23 23 24 24 24 25 24 25 25 26 27 28
27 27 27 27 28 27 27 27 27 27 28 27 27 27 26 26 27 26 25 24 24 25 25 25 25 25 25 25 25 25 24 24 24 25 25 25 25 26 26 26 27 27 28 29
29 29 29 29 30 28 28 29 29 29 29 29 29 29 28 28 28 27 26 26 26 26 26 26 25 25 25 25 25 25 25 26 25 26 27 27 28 28 29 29 29 29 29 29
31 30 31 31 31 30 30 30 31 31 31 31 30 30 30 30 29 29 28 27 27 27 27 27 26 26 26 26 26 26 27 27 27 27 28 29 29 29 29 30 30 30 29 29
33 32 34 34 32 32 32 32 32 32 33 33 32 31 31 31 30 30 29 28 29 29 28 28 28 27 27 28 28 28 29 29 29 30 30 29 29 29 29 29 29 29 28 28
35 35 36 36 34 34 34 34 34 34 34 34 33 33 32 32 31 30 30 30 30 30 29 29 29 29 29 29 29 30 30 31 31 30 30 29 29 29 29 29 28 28 28 29
36 37 38 37 36 37 36 35 35 35 35 35 34 34 33 33 31 31 31 31 31 31 30 30 30 30 31 31 31 31 31 31 30 29 29 29 29 29 29 29 28 28 29 30
Wind_Direction
222 226 230 230 228 230 231 233 237 240 241 243 245 247 249 252 254 255 256 257 259 261 263 264 265 266 267 267 267 267 267 266 264 262 261 260 258 257 256 254 253 252 251 249
222 227 230 230 229 231 234 236 238 240 243 245 246 247 248 251 254 256 257 258 260 262 263 266 267 268 268 268 269 268 268 267 267 266 264 262 259 257 254 253 253 252 252 249
222 229 227 228 230 232 236 237 239 242 245 247 248 248 250 252 255 258 259 260 261 262 264 266 269 271 271 271 270 270 270 269 269 268 266 263 259 257 255 254 254 254 253 251
232 236 231 231 235 235 238 240 245 247 248 249 251 253 254 256 258 259 261 262 263 264 266 269 271 273 273 273 272 272 272 273 272 270 268 265 262 258 256 255 254 254 254 252
251 243 236 238 241 242 246 248 250 251 252 255 257 259 258 259 260 262 263 264 265 267 268 271 274 275 275 276 276 275 274 275 274 272 269 267 264 261 258 256 254 255 254 253
271 254 243 246 251 251 252 252 252 253 257 260 262 263 263 262 265 266 266 266 268 269 271 273 276 277 276 277 278 278 276 276 276 274 272 269 265 262 259 257 256 256 255 254
273 255 245 248 254 254 255 256 257 260 262 264 266 270 271 270 270 269 269 269 270 271 272 274 278 278 278 279 280 279 278 278 279 276 273 272 269 265 261 260 258 255 254 254
287 269 259 256 259 261 261 262 263 266 268 268 270 274 277 277 276 275 273 274 275 275 276 278 280 280 280 281 281 281 281 281 280 277 275 273 272 269 264 261 259 258 256 255
298 282 275 269 263 264 264 266 269 271 272 274 273 276 278 280 279 279 278 277 278 280 280 280 281 282 282 283 282 282 282 282 282 280 278 279 274 269 266 264 263 259 255 253
309 293 281 277 274 272 269 269 273 275 279 281 281 284 286 284 281 282 282 281 282 283 283 284 283 283 284 285 285 284 284 283 283 283 280 278 276 273 271 269 267 264 258 253
313 299 289 282 281 281 279 275 276 278 282 285 286 288 289 287 284 285 286 286 286 286 285 285 285 286 287 287 289 290 289 287 287 286 283 280 279 278 276 272 270 268 264 260
313 307 295 287 284 283 281 281 281 281 282 285 287 290 289 288 287 287 288 289 290 289 288 287 287 287 287 288 289 291 291 290 288 287 285 284 281 281 278 277 274 271 269 267
307 306 302 294 289 286 285 283 281 281 283 285 287 290 289 287 287 288 288 288 288 288 287 287 287 288 288 289 289 290 290 289 288 287 287 288 285 282 281 280 276 273 270 267
302 303 302 298 294 289 286 284 283 284 286 287 289 288 287 287 287 287 288 289 290 290 289 288 289 291 291 291 291 290 289 290 290 289 288 289 288 284 283 281 278 273 270 268
300 300 298 296 292 290 288 286 285 287 288 288 289 289 288 287 288 288 288 288 289 290 291 291 291 292 292 291 290 289 289 290 291 291 291 292 291 288 285 281 277 274 272 270
298 298 295 293 292 290 289 288 287 288 288 289 289 290 288 289 290 289 287 286 288 289 289 291 291 291 293 293 292 290 289 288 290 292 291 292 291 288 287 283 277 274 273 273
296 296 294 291 289 290 289 288 287 287 288 289 290 290 288 290 291 290 288 286 286 286 287 288 290 291 294 295 296 294 292 290 291 292 293 291 289 286 285 283 278 277 276 277
296 295 293 291 289 290 292 290 289 288 288 289 289 288 289 290 292 292 290 288 287 285 284 286 289 292 294 296 297 298 296 293 292 292 292 293 292 289 286 285 282 277 277 277
294 295 294 293 290 291 291 291 290 289 288 288 288 287 289 291 292 293 292 289 288 286 285 287 289 290 291 293 294 296 296 295 294 294 294 293 292 292 290 289 286 280 278 279
291 292 292 292 291 292 294 292 291 291 289 288 288 288 289 291 292 293 291 290 289 288 287 286 287 288 289 290 291 292 293 294 294 295 294 292 291 290 289 289 286 283 281 281
288 289 290 290 290 293 293 292 292 291 290 289 288 288 289 291 292 293 291 289 289 289 287 284 284 285 287 288 289 290 292 292 294 295 296 293 292 291 290 288 287 286 285 284
286 287 288 287 289 293 291 291 290 290 289 288 287 288 289 290 291 291 289 288 288 289 287 284 283 284 285 287 288 290 292 292 293 294 295 295 293 291 291 289 288 287 287 287
284 285 285 286 289 289 288 288 288 287 288 287 287 288 289 289 289 288 287 286 286 287 286 284 283 282 283 284 286 288 290 291 292 293 294 295 294 293 292 290 290 289 288 288
282 284 283 284 286 284 284 285 286 286 285 285 286 287 287 287 288 287 286 285 284 285 285 284 282 281 281 283 285 287 289 290 291 292 293 294 293 293 293 293 292 291 290 290
283 284 283 281 282 281 281 282 284 284 284 284 285 285 285 286 287 286 286 285 284 284 284 283 282 281 281 283 286 287 288 289 291 292 292 292 293 293 293 293 291 291 290 291
282 283 282 282 280 280 280 281 282 283 284 284 284 284 283 284 285 284 285 285 285 285 285 284 283 282 282 284 286 287 289 290 290 290 290 290 291 291 292 291 291 291 291 292
Height
5679 5682 5684 5686 5688 5691 5693 5695 5698 5700 5702 5705 5706 5708 5710 5710 5712 5713 5714 5715 5716 5716 5716 5716 5716 5716 5716 5716 5715 5715 5715 5715 5714 5714 5715 5716 5718 5719 5721 5723 5726 5729 5732 5735
5679 5681 5683 5684 5686 5688 5690 5692 5694 5696 5698 5700 5702 5704 5705 5706 5707 5708 5709 5709 5710 5710 5710 5710 5709 5709 5709 5708 5708 5708 5707 5707 5706 5706 5706 5707 5708 5709 5711 5713 5715 5718 5721 5724
5679 5681 5681 5683 5685 5687 5688 5690 5692 5694 5695 5696 5698 5700 5701 5701 5702 5703 5703 5704 5704 5704 5704 5704 5703 5703 5702 5701 5701 5700 5699 5699 5698 5697 5697 5697 5698 5699 5701 5703 5705 5708 5710 5714
5679 5680 5681 5683 5684 5685 5687 5689 5690 5691 5692 5693 5695 5696 5697 5697 5698 5698 5699 5699 5699 5699 5698 5698 5698 5697 5695 5694 5693 5692 5692 5691 5690 5689 5689 5689 5689 5691 5692 5693 5695 5697 5700 5703
5679 5680 5681 5682 5683 5684 5686 5687 5688 5688 5689 5690 5691 5692 5694 5693 5693 5694 5694 5694 5694 5694 5693 5693 5692 5690 5689 5688 5686 5685 5684 5683 5682 5681 5680 5680 5681 5681 5682 5684 5686 5687 5689 5692
5679 5679 5680 5681 5682 5683 5684 5685 5685 5686 5686 5688 5688 5688 5689 5689 5690 5690 5690 5689 5689 5689 5688 5687 5686 5685 5683 5682 5680 5679 5678 5676 5675 5674 5673 5672 5672 5672 5673 5674 5675 5677 5678 5680
5679 5680 5680 5680 5681 5682 5682 5683 5684 5683 5684 5685 5684 5684 5686 5685 5685 5685 5685 5685 5684 5683 5682 5681 5680 5679 5678 5676 5674 5673 5671 5670 5668 5667 5666 5665 5664 5664 5664 5664 5665 5667 5669 5671
5679 5680 5680 5679 5680 5680 5680 5681 5682 5682 5681 5682 5681 5681 5683 5682 5681 5680 5680 5680 5679 5678 5677 5676 5675 5673 5672 5670 5669 5667 5665 5664 5662 5661 5659 5658 5657 5655 5655 5655 5656 5657 5659 5661
5679 5679 5679 5679 5678 5679 5679 5679 5679 5679 5678 5678 5678 5678 5678 5677 5677 5676 5675 5675 5674 5673 5672 5670 5669 5667 5666 5664 5663 5661 5660 5658 5656 5654 5653 5651 5649 5648 5647 5647 5647 5648 5650 5651
5678 5678 5678 5677 5677 5677 5677 5676 5676 5676 5675 5674 5675 5675 5675 5673 5672 5672 5671 5670 5669 5668 5666 5664 5663 5662 5660 5659 5657 5655 5653 5652 5650 5648 5646 5645 5644 5642 5641 5640 5640 5639 5640 5641
5677 5677 5677 5676 5675 5675 5675 5675 5673 5673 5672 5671 5671 5674 5671 5669 5668 5667 5666 5665 5664 5663 5661 5659 5658 5656 5655 5653 5651 5649 5647 5646 5644 5642 5641 5639 5638 5637 5635 5634 5633 5632 5632 5632
5676 5676 5675 5674 5673 5672 5672 5671 5670 5670 5669 5667 5667 5671 5666 5665 5664 5663 5662 5661 5659 5658 5656 5654 5652 5651 5649 5647 5645 5643 5641 5640 5638 5636 5635 5633 5631 5630 5629 5628 5627 5626 5625 5625
5675 5674 5673 5672 5673 5671 5669 5668 5667 5666 5665 5664 5663 5667 5662 5661 5659 5658 5657 5655 5654 5652 5651 5649 5647 5646 5644 5642 5640 5637 5635 5634 5632 5630 5628 5627 5625 5624 5622 5621 5620 5619 5619 5618
5672 5671 5671 5670 5668 5666 5665 5665 5663 5662 5661 5660 5660 5660 5658 5655 5653 5653 5651 5650 5648 5647 5645 5643 5641 5640 5638 5636 5634 5632 5630 5628 5626 5624 5622 5620 5618 5617 5616 5615 5614 5613 5613 5613
5669 5669 5667 5666 5664 5663 5662 5661 5659 5658 5657 5656 5655 5654 5653 5650 5648 5647 5646 5644 5643 5641 5639 5637 5636 5634 5632 5630 5628 5626 5624 5622 5620 5617 5616 5614 5612 5610 5609 5608 5607 5606 5606 5606
5666 5666 5664 5663 5661 5659 5658 5657 5655 5653 5652 5651 5650 5649 5647 5645 5643 5641 5639 5638 5637 5635 5633 5631 5629 5627 5625 5623 5621 5619 5617 5615 5614 5612 5609 5607 5606 5604 5602 5601 5600 5600 5599 5599
5663 5662 5660 5659 5657 5655 5655 5654 5651 5649 5648 5646 5644 5644 5641 5640 5637 5635 5633 5632 5630 5629 5627 5625 5623 5621 5619 5618 5615 5613 5611 5609 5607 5606 5604 5601 5600 5598 5596 5595 5594 5593 5593 5592
5659 5657 5655 5654 5654 5651 5653 5649 5646 5644 5643 5641 5639 5637 5635 5634 5632 5629 5627 5625 5624 5622 5621 5619 5618 5616 5614 5612 5610 5608 5606 5603 5601 5599 5597 5595 5593 5591 5590 5588 5587 5586 5586 5585
5654 5652 5650 5648 5646 5646 5646 5643 5640 5639 5638 5635 5633 5631 5629 5627 5626 5624 5621 5619 5617 5615 5614 5613 5611 5609 5608 5606 5604 5602 5600 5597 5595 5593 5591 5589 5587 5585 5583 5582 5580 5579 5578 5577
5648 5646 5645 5642 5640 5639 5641 5637 5633 5633 5631 5629 5626 5625 5623 5621 5620 5619 5615 5613 5611 5609 5607 5606 5604 5603 5601 5599 5597 5595 5593 5591 5589 5587 5584 5582 5580 5578 5576 5575 5573 5572 5570 5569
5641 5639 5638 5635 5632 5633 5633 5630 5627 5627 5625 5622 5619 5618 5616 5614 5613 5611 5609 5607 5605 5603 5601 5599 5597 5596 5594 5592 5590 5588 5586 5584 5582 5579 5577 5575 5572 5570 5569 5567 5565 5563 5561 5559
5634 5632 5630 5628 5626 5628 5625 5622 5620 5619 5616 5614 5612 5610 5609 5607 5605 5603 5601 5600 5598 5596 5594 5592 5590 5588 5586 5584 5583 5581 5579 5576 5574 5572 5569 5567 5564 5562 5560 5558 5556 5554 5552 5550
5626 5625 5622 5621 5622 5619 5616 5613 5611 5609 5608 5606 5604 5602 5601 5599 5597 5596 5594 5592 5590 5588 5586 5584 5582 5581 5579 5577 5575 5573 5571 5568 5566 5563 5560 5558 5555 5553 5550 5548 5546 5545 5543 5541
5617 5615 5613 5611 5612 5610 5607 5604 5602 5600 5598 5597 5595 5594 5592 5590 5589 5587 5585 5584 5582 5580 5578 5576 5574 5572 5571 5569 5566 5564 5562 5559 5557 5554 5551 5549 5546 5544 5541 5539 5537 5535 5534 5532
5608 5605 5602 5601 5601 5599 5598 5595 5593 5591 5589 5587 5586 5584 5583 5581 5580 5578 5576 5575 5573 5571 5569 5567 5565 5564 5562 5560 5558 5555 5553 5550 5547 5544 5542 5539 5537 5535 5533 5531 5529 5527 5526 5524
5599 5595 5592 5591 5590 5587 5587 5585 5583 5581 5580 5578 5576 5575 5573 5572 5570 5569 5567 5565 5564 5562 5560 5558 5556 5555 5553 5551 5548 5546 5543 5540 5537 5535 5533 5531 5529 5527 5525 5523 5521 5519 5518 5516